{"data":{"norad_id":65984,"intl_designator":"2025-230L","name":"SDA_1674","alt_names":[],"object_type":"PAYLOAD","status":"ACTIVE","operator":null,"country":"US","launch_date":"2025-10-15","launch_site_code":"AFWTR","launch_vehicle":null,"mission":null,"orbit_class":"UNKNOWN","rcs_meters":null,"size_class":null,"mass_kg":null,"dimensions":null,"purposes":[],"wikipedia_slug":null,"has_3d_model":false,"image_url":null,"decayed_at":null,"tle_current":{"epoch":"2026-05-25T05:00:30.517056Z","epoch_age_seconds":53714,"freshness":"FRESH","line1":"1 65984U 25230L   26145.20868654 -.00007535  00000+0 -68213-2 0  9994","line2":"2 65984  81.3012 232.9624 0000467 229.5005 130.6111 13.83839493 30633","mean_motion":13.83839493,"eccentricity":4.67e-5,"inclination_deg":81.3012,"raan_deg":232.9624,"arg_perigee_deg":229.5005,"mean_anomaly_deg":130.6111,"bstar":-0.0068213,"rev_number":3063,"period_min":104.05831075671,"perigee_km":949.95779849227,"apogee_km":950.64227451148,"semimajor_km":7328.4370365019,"source":"CELESTRAK","updated_at":"2026-05-25T13:38:05.879177Z"}}}